Regional Weather Roundup
Issued by NWS

Home | Current Version | Previous Version | Graphics & Text | Print | Product List | Glossary On
Versions: 1 2 3 4 5 6 7 8 9 10 11 12 13 14 15 16 17 18 19 20 21 22 23 24 25 26 27 28 29 30 31 32 33 34 35 36 37 38 39 40 41 42 43 44 45 46 47 48 49 50
000
ASUS43 KIND 010409
RWRIN

WEATHER ROUNDUP FOR INDIANA
NATIONAL WEATHER SERVICE INDIANAPOLIS IN
1100 PM EST SAT FEB 28 2015

NOTE: "FAIR" INDICATES FEW OR NO CLOUDS BELOW 12,000 FEET WITH NO
SIGNIFICANT WEATHER AND/OR OBSTRUCTIONS TO VISIBILITY.

* - STATION DOES NOT REPORT WEATHER SUCH AS PRECIPITATION OR FOG.

+ - STATION NOT QUALITY CONTROLLED BY THE NATIONAL WEATHER SERVICE.
    USE DATA WITH CAUTION...ESPECIALLY DEWPOINT AND RELATIVE
    HUMIDITY OBSERVATIONS.

INZ001>003-010>013-019-020-010500-
NORTHWEST INDIANA

CITY           SKY/WX    TMP DP  RH WIND       PRES   REMARKS
GARY /AIRPORT/ LGT SNOW  20  13  72 SE3       30.50F
KNOX *+          N/A     19   9  63 SE6       30.50F WCI  11
LA PORTE +     FLURRIES  19  15  85 SE6       30.51F WCI  11
MICHIGAN CITY+ LGT SNOW  19  10  68 SE3       30.51F
MONTICELLO +   LGT SNOW  19  17  93 E6        30.50F WCI  11
RENSSELAER +   LGT SNOW  21  21 100 E8        30.49F VSB 1   WCI  12
VALPARAISO     LGT SNOW  17  13  84 SE7       30.49F FOG     WCI   8

$$

LMZ046-743>745-010500-
SOUTHERN LAKE MICHIGAN

STATION/POSITION TIME  TEMP WIND        PRES
                       AIR  DIR/SP/G
                 (UTC) (F)  (DEG/KT/KT) (MB)
MICHIGAN CITY    0400   18  120/  5/  8   N/A

$$

INZ004-005-014>016-021>024-010500-
NORTH CENTRAL INDIANA

CITY           SKY/WX    TMP DP  RH WIND       PRES   REMARKS
GOSHEN         LGT SNOW  16  11  80 SE7       30.51F WCI   6
LOGANSPORT +   LGT SNOW  19  18  93 E8        30.51F WCI   9
PERU/GRISSOM   LGT SNOW  18  16  93 E9        30.49F FOG     WCI   6
ROCHESTER +    LGT SNOW  21  19  93 SE6       30.51F WCI  14
SOUTH BEND     LGT SNOW  18  13  80 SE10      30.51F WCI   6
WARSAW +       LGT SNOW  18  14  86 SE6       30.51F WCI   9

$$

INZ006>009-017-018-025>027-010500-
NORTHEAST INDIANA

CITY           SKY/WX    TMP DP  RH WIND       PRES   REMARKS
ANGOLA *+      CLOUDY    12   9  85 SE6       30.52F WCI   3
FORT WAYNE     LGT SNOW  16  13  88 E6        30.54F VSB 1   WCI   7
HUNTINGTON +   LGT SNOW  17  12  80 E5        30.52F WCI  10

$$

INZ028-029-035-036-043>045-051>053-010500-
WEST CENTRAL INDIANA

CITY           SKY/WX    TMP DP  RH WIND       PRES   REMARKS
CRAWFORDSVL +  LGT SNOW  19  15  82 E7        30.47F WCI  10
GREENCASTLE +  LGT SNOW  21  18  86 SE6       30.49F WCI  14
LAFAYETTE      LGT SNOW  20  18  92 E8        30.50F VSB 1   WCI  10
TERRE HAUTE    SNOW      24  22  91 SE7       30.48F VSB 1/2 WCI  16

$$

INZ030>032-037>040-046>048-054>057-064-065-010500-
CENTRAL INDIANA

CITY           SKY/WX    TMP DP  RH WIND       PRES   REMARKS
CP ATTERBURY + LGT SNOW  25  21  86 SE3       30.51F
FRANKFORT +    LGT SNOW  20  19  96 E6        30.50F WCI  13
GREENWOOD *+   CLOUDY    21  18  86 E5        30.50F WCI  15
INDIANAPOLIS   LGT SNOW  21  18  88 E8        30.48F VSB 1   WCI  11
-EAGLE CREEK   LGT SNOW  21  19  92 SE6       30.48F FOG     WCI  13
KOKOMO *+      CLOUDY    18  16  93 SE10      30.50F WCI   6
MARION +       LGT SNOW  18  15  88 SE7       30.51F WCI   8
MT COMFORT *+  CLOUDY    21  21 100 SE5       30.50F WCI  15
SHELBYVILLE    LGT SNOW  24  19  81 E6        30.49F VSB 1   WCI  17
ZIONSVILLE +   LGT SNOW  21  17  85 E6        30.49F WCI  14

$$

INZ033-034-041-042-049-050-058-059-010500-
EAST CENTRAL INDIANA

CITY           SKY/WX    TMP DP  RH WIND       PRES   REMARKS
MUNCIE         SNOW      19  16  88 MISG      30.51F VSB 1/2

$$

INZ060-061-067>069-081>083-085>088-010500-
SOUTHWEST INDIANA

CITY           SKY/WX    TMP DP  RH WIND       PRES   REMARKS
EVANSVILLE     CLOUDY    32  20  61 NE9       30.49S WCI  24
HUNTINGBURG *+ CLOUDY    30  18  59 N9        30.50S WCI  22
WASHINGTON +   FLURRIES  29  18  62 E8        30.48F WCI  21

$$

INZ062-063-066-070>080-084-089>092-010500-
SOUTH CENTRAL AND SOUTHEAST INDIANA

CITY           SKY/WX    TMP DP  RH WIND       PRES   REMARKS
BLOOMINGTON    SNOW      24  22  91 SE6       30.48F VSB 1/2 WCI  17
NORTH VERNON + CLOUDY    28  12  50 N5        30.53R WCI  23
SEYMOUR +      LGT SNOW  27  19  74 NE7       30.53R WCI  19

$$



USA.gov is the U.S. government's official web portal to all federal, state and local government web resources and services.